Location: Newark
(48.0000°N, 67.0000°E)
Time: 20:57:02
(UTC+00:00)

Vanguard 2 - Pass Details

Date: 27 February 2020
Orbit: 552 x 2938 km, 32.9° (Epoch: 06 April)

Event Time Altitude Azimuth Distance (km) Brightness Sun altitude
Exits shadow 22:16:44 34° 152° (SSE) 2,887 10.2 -39.0°
Drops below altitude 10° 22:26:43 10° 113° (ESE) 5,142 12.0 -37.6°
Sets 22:31:50 0° 106° (ESE) 6,441 12.7 -36.9°
